This is the latest recevied weather packets stored in our database for station/object KD8PH. If no packets are shown the sender has not sent any weather packets the latest 10 day(s).
| Time | Temp. | Humidity | Pressure | Rain* | Wind** | Luminosity | Snow |
|---|---|---|---|---|---|---|---|
| 1777624534 | 11.11° C | 80% | 1012.3 hPa | 0.25 mm | - | - | - |
| 1777623936 | 11.67° C | 81% | 1012.3 hPa | 0.25 mm | - | - | - |
| 1777623342 | 11.67° C | 79% | 1012.1 hPa | 0.25 mm | - | - | - |
| 1777622736 | 12.22° C | 77% | 1012.3 hPa | 0.51 mm | - | - | - |
| 1777622135 | 12.22° C | 77% | 1012.3 hPa | 0.25 mm | - | - | - |
| 1777621543 | 12.22° C | 75% | 1012 hPa | 0.25 mm | - | - | - |
| 1777620940 | 12.22° C | 74% | 1011.9 hPa | 0.25 mm | - | - | - |
| 1777620341 | 12.78° C | 75% | 1011.9 hPa | 0.25 mm | - | - | - |
| 1777619748 | 12.78° C | 75% | 1011.9 hPa | 0.51 mm | - | - | - |
| 1777619136 | 12.78° C | 73% | 1011.8 hPa | 0.25 mm | - | - | - |
| 1777618534 | 12.78° C | 71% | 1012.2 hPa | 0.25 mm | - | - | - |
| 1777617939 | 12.78° C | 72% | 1012.4 hPa | 0.25 mm | - | - | - |
| 1777617344 | 12.78° C | 70% | 1012.3 hPa | 0.25 mm | - | - | - |
| 1777616744 | 12.78° C | 74% | 1012.6 hPa | 0.51 mm | - | - | - |
| 1777616149 | 13.33° C | 72% | 1012.6 hPa | 0.25 mm | - | - | - |
| 1777615538 | 13.33° C | 69% | 1012.5 hPa | 0.25 mm | - | - | - |
| 1777614936 | 13.89° C | 68% | 1012.5 hPa | 0.25 mm | - | - | - |
| 1777614336 | 13.89° C | 67% | 1012.6 hPa | 0.51 mm | - | - | - |
| 1777613734 | 13.89° C | 67% | 1012.7 hPa | 0.51 mm | - | - | - |
| 1777613137 | 13.89° C | 67% | 1012.7 hPa | 0.25 mm | - | - | - |
| 1777612536 | 13.89° C | 67% | 1012.8 hPa | 0.25 mm | - | - | - |
| 1777611935 | 13.89° C | 68% | 1012.7 hPa | 0.51 mm | - | - | - |
| 1777611359 | 13.89° C | 70% | 1012.7 hPa | 0.51 mm | - | - | - |
| 1777610738 | 13.33° C | 72% | 1012.5 hPa | 0.25 mm | - | - | - |
| 1777610140 | 13.33° C | 75% | 1012.8 hPa | 0.25 mm | - | - | - |
* Rain latest hour (hover to see other rain measurements)
** Current wind speed in m/s (hover to see current wind gust speed)